Weather History for KLDJ - October, 2012

Change the Weather History Date:

Monday, October 8, 2012

  Actual Average (KEWR) Record (KEWR)
Temperature  
Mean Temperature 49 °F 59 °F  
Max Temperature 55 °F 68 °F 89 °F (2007)
Min Temperature 43 °F 51 °F 32 °F (1935)
Degree Days  
Heating Degree Days 16 7  
Month to date heating degree days 44  
Since 1 July heating degree days 89  
Cooling Degree Days 0 1  
Month to date cooling degree days 9  
Year to date cooling degree days 1183  
Moisture  
Dew Point 43 °F    
Average Humidity 79    
Maximum Humidity 96    
Minimum Humidity 56    
Precipitation  
Precipitation 0.05 in 0.12 in 4.08 in (2005)
Month to date precipitation 0.95  
Year to date precipitation 36.14  
Snow  
Snow 0.00 in 0.00 in 0.00 in (2002)
Month to date snowfall 0.0  
Since 1 July snowfall 0.0  
Snow Depth -    
Sea Level Pressure  
Sea Level Pressure 30.21 in    
Wind  
Wind Speed 2 mph (NW)    
Max Wind Speed 8 mph    
Max Gust Speed -    
Visibility 9 miles    
Events      
T = Trace of Precipitation, MM = Missing Value Source: NWS Daily Summary

Daily Weather History Graph

Daily Weather History Graph

Search for Another Location

Airport or City:

Trip Planner

Search our weather history database for the weather conditions in past years. The results will help you decide how hot, cold, wet, or windy it might be!

Date:

Astronomy

Oct. 08, 2012 Rise Set
Actual Time 7:01 AM EDT 6:26 PM EDT
Civil Twilight 6:33 AM EDT 6:54 PM EDT
Nautical Twilight 6:02 AM EDT 7:25 PM EDT
Astronomical Twilight 5:30 AM EDT 7:57 PM EDT
Moon No Moon Rise 2:16 PM EDT (10/8)
Length of Visible Light 12h 20m
Length of Day
11h 25m
Waning Gibbous, 46% of the Moon is Illuminated
Oct 8
Waning Gibbous
Oct 15
New
Oct 21
First Quarter
Oct 29
Full
Nov 6
Last Quarter

Hourly Weather History & Observations

Time (EDT) Temp. Windchill Dew Point Humidity Pressure Visibility Wind Dir Wind Speed Gust Speed Precip Events Conditions
12:15 AM 49.3 °F - 47.1 °F 92% 30.12 in 10.0 mi Calm Calm - N/A   Clear
12:35 AM 48.4 °F - 46.6 °F 93% 30.12 in 10.0 mi Calm Calm - N/A   Clear
12:55 AM 48.2 °F - 46.0 °F 92% 30.12 in 7.0 mi Calm Calm - N/A   Clear
1:15 AM 47.3 °F - 45.5 °F 93% 30.13 in 5.0 mi Calm Calm - N/A   Clear
1:35 AM 47.1 °F - 45.7 °F 95% 30.13 in 4.0 mi Calm Calm - N/A   Clear
1:55 AM 46.9 °F - 45.5 °F 95% 30.13 in 5.0 mi NW 3.5 mph - N/A   Clear
2:15 AM 46.6 °F - 45.5 °F 96% 30.14 in 4.0 mi WNW 5.8 mph - N/A   Clear
2:35 AM 46.0 °F 43.9 °F 44.8 °F 95% 30.14 in 2.5 mi WNW 4.6 mph - N/A   Clear
2:55 AM 45.9 °F - 44.8 °F 96% 30.14 in 4.0 mi Calm Calm - N/A   Clear
3:15 AM 45.9 °F 44.6 °F 44.8 °F 96% 30.15 in 7.0 mi NW 3.5 mph - N/A   Clear
3:35 AM 45.5 °F - 44.1 °F 95% 30.14 in 7.0 mi Calm Calm - N/A   Clear
3:55 AM 45.5 °F - 44.2 °F 95% 30.14 in 7.0 mi Calm Calm - N/A   Clear
4:15 AM 45.5 °F - 44.1 °F 95% 30.15 in 10.0 mi Calm Calm - N/A   Clear
4:35 AM 45.0 °F - 43.3 °F 94% 30.16 in 7.0 mi Calm Calm - N/A   Clear
4:55 AM 44.8 °F - 43.3 °F 95% 30.16 in 7.0 mi Calm Calm - N/A   Clear
5:15 AM 45.0 °F - 43.7 °F 95% 30.16 in 7.0 mi Calm Calm - N/A   Clear
5:35 AM 44.1 °F - 42.8 °F 95% 30.16 in 7.0 mi Calm Calm - N/A   Clear
5:55 AM 44.4 °F - 42.8 °F 94% 30.18 in 10.0 mi Calm Calm - N/A   Clear
6:15 AM 43.7 °F 42.1 °F 42.3 °F 95% 30.19 in 10.0 mi WNW 3.5 mph - N/A   Clear
6:35 AM 44.1 °F 41.5 °F 42.3 °F 93% 30.20 in 10.0 mi WNW 4.6 mph - N/A   Clear
6:55 AM 43.7 °F 40.3 °F 41.9 °F 93% 30.20 in 10.0 mi NW 5.8 mph - N/A   Clear
7:15 AM 43.5 °F 40.1 °F 41.9 °F 94% 30.22 in 10.0 mi NW 5.8 mph - N/A   Clear
7:35 AM 43.7 °F 41.1 °F 41.9 °F 93% 30.22 in 10.0 mi NW 4.6 mph - N/A   Clear
7:55 AM 44.6 °F 42.2 °F 42.8 °F 93% 30.24 in 10.0 mi WNW 4.6 mph - N/A   Clear
8:15 AM 45.7 °F 43.4 °F 43.2 °F 91% 30.25 in 10.0 mi WNW 4.6 mph - N/A   Clear
8:35 AM 46.9 °F - 43.7 °F 88% 30.26 in 10.0 mi WNW 4.6 mph - N/A   Clear
8:55 AM 47.8 °F - 43.7 °F 86% 30.27 in 10.0 mi NW 4.6 mph - N/A   Clear
9:15 AM 50.0 °F - 43.5 °F 78% 30.27 in 10.0 mi NNW 6.9 mph - N/A   Clear
9:35 AM 50.5 °F - 42.8 °F 75% 30.27 in 10.0 mi NNW 8.1 mph - N/A   Clear
9:55 AM 50.4 °F - 42.4 °F 74% 30.27 in 10.0 mi North 3.5 mph - N/A   Clear
10:15 AM 51.3 °F - 42.6 °F 72% 30.27 in 10.0 mi NNW 6.9 mph - N/A   Clear
10:35 AM 52.0 °F - 42.1 °F 69% 30.26 in 10.0 mi North 5.8 mph - N/A   Clear
10:55 AM 52.3 °F - 43.0 °F 70% 30.27 in 10.0 mi NNW 3.5 mph - N/A   Clear
11:15 AM 52.9 °F - 42.6 °F 68% 30.26 in 10.0 mi North 4.6 mph - N/A   Clear
11:35 AM 53.6 °F - 41.9 °F 65% 30.26 in 10.0 mi NW 5.8 mph - N/A   Clear
11:55 AM 53.6 °F - 41.0 °F 62% 30.26 in 10.0 mi Calm Calm - N/A   Clear
12:15 PM 54.3 °F - 40.8 °F 60% 30.26 in 10.0 mi Calm Calm - N/A   Clear
12:35 PM 54.7 °F - 40.6 °F 59% 30.27 in 10.0 mi Calm Calm - N/A   Clear
12:55 PM 54.7 °F - 40.3 °F 58% 30.27 in 10.0 mi Calm Calm - N/A   Scattered Clouds
1:15 PM 55.6 °F - 40.5 °F 57% 30.27 in 10.0 mi Calm Calm - N/A   Scattered Clouds
1:35 PM 55.4 °F - 40.1 °F 56% 30.27 in 10.0 mi Calm Calm - N/A   Mostly Cloudy
1:55 PM 55.2 °F - 40.5 °F 58% 30.27 in 10.0 mi Calm Calm - N/A   Mostly Cloudy
2:15 PM 55.6 °F - 41.5 °F 59% 30.26 in 10.0 mi Calm Calm - N/A   Scattered Clouds
2:35 PM 55.8 °F - 42.1 °F 60% 30.25 in 10.0 mi Calm Calm - N/A   Scattered Clouds
2:55 PM 55.4 °F - 40.1 °F 56% 30.25 in 10.0 mi Calm Calm - N/A   Overcast
3:15 PM 55.6 °F - 41.0 °F 58% 30.25 in 10.0 mi Calm Calm - N/A   Overcast
3:35 PM 55.6 °F - 41.0 °F 58% 30.25 in 10.0 mi Calm Calm - N/A   Overcast
3:55 PM 55.4 °F - 40.6 °F 58% 30.24 in 10.0 mi Calm Calm - N/A   Overcast
4:15 PM 55.4 °F - 40.6 °F 58% 30.25 in 10.0 mi Calm Calm - N/A   Overcast
4:35 PM 55.4 °F - 41.2 °F 59% 30.26 in 10.0 mi NW 3.5 mph - N/A   Overcast
4:55 PM 55.4 °F - 41.4 °F 59% 30.27 in 10.0 mi WNW 5.8 mph - N/A   Overcast